sat.trackr.live / text

‹ back to catalog

STARLINK-5749

NORAD 55569 · 2023-020A

PAYLOAD ACTIVE UNKNOWN

§ Identity

Operator
Country
US
Launch date
2023-02-12
Launch site
AFETR
Launch vehicle
Mass (kg)
RCS (m²)

Purposes: comms

External: N2YO · Heavens-Above · Gunter

§ Orbital elements

Epoch: 2026-09-20T16:44:03.168960Z

Period
94.27 min
Inclination
43.0056°
Eccentricity
0.0002379
Mean motion
15.27575456 rev/d
Perigee alt
481.4 km
Apogee alt
484.7 km
Semi-major
6,861.2 km
B*
-2.2148e-5
RAAN
347.5666°
Arg perigee
292.8227°
Mean anomaly
67.2374°
Rev number
19,976

§ Raw data

STARLINK-57491 55569U 23020A   26263.69725890 -.00000872  00000+0 -22148-4 0  99912 55569  43.0056 347.5666 0002379 292.8227  67.2374 15.27575456199768

JSON: /api/v1/satellites/55569 · /tle

For live sub-satellite position, see the globe view (requires WebGL).

§ Visibility from observer

Set your observer location to see the next 7 days of passes ≥ 10°. The values pass through the URL so the page stays shareable.

No JS? Fill the form by hand. The geolocation button needs JavaScript.